Time,TemperatureF,DewpointF,PressureIn,WindDirection,WindDirectionDegrees,WindSpeedMPH,WindSpeedGustMPH,Humidity,HourlyPrecipIn,Conditions,Clouds,dailyrainin,SolarRadiationWatts/m^2,SoftwareType,DateUTC
2013-01-18 00:00:00,14.8,10.3,30.24,SSW,195,0.1,1.1,82,0.00,BKN,,0.00,0.0,WeatherDisplay:10.37,2013-01-18 06:00:00,
2013-01-18 00:05:00,15.0,10.8,30.24,SSW,194,1.3,3.0,83,0.00,BKN,,0.00,0.0,WeatherDisplay:10.37,2013-01-18 06:05:00,
2013-01-18 00:10:00,14.9,10.7,30.22,South,191,2.5,4.6,83,0.00,BKN,,0.00,0.0,WeatherDisplay:10.37,2013-01-18 06:10:00,
2013-01-18 00:15:00,14.8,10.6,30.23,South,175,2.1,3.5,83,0.00,BKN,,0.00,0.0,WeatherDisplay:10.37,2013-01-18 06:15:00,
2013-01-18 00:20:00,14.6,10.6,30.23,SSW,213,1.2,3.5,84,0.00,BKN,,0.00,0.0,WeatherDisplay:10.37,2013-01-18 06:20:00,
2013-01-18 00:25:00,14.6,10.6,30.22,SSW,192,2.0,5.0,84,0.00,BKN,BKN,0.00,0.0,WeatherDisplay:10.37,2013-01-18 06:25:00,
2013-01-18 00:30:00,14.5,10.8,30.22,South,184,2.0,4.0,85,0.00,BKN,BKN,0.00,0.0,WeatherDisplay:10.37,2013-01-18 06:30:00,
2013-01-18 00:35:00,14.5,11.1,30.22,South,171,3.0,6.0,86,0.00,BKN,BKN,0.00,0.0,WeatherDisplay:10.37,2013-01-18 06:35:00,
2013-01-18 00:41:00,14.6,11.4,30.22,SSE,168,1.0,5.0,87,0.00,BKN,BKN,0.00,0.0,WeatherDisplay:10.37,2013-01-18 06:41:00,
2013-01-18 00:46:00,14.6,11.4,30.21,South,172,0.9,2.3,87,0.00,BKN,,0.00,0.0,WeatherDisplay:10.37,2013-01-18 06:46:00,
2013-01-18 00:51:00,14.8,11.6,30.20,South,175,0.4,3.5,87,0.00,BKN,,0.00,0.0,WeatherDisplay:10.37,2013-01-18 06:51:00,
2013-01-18 00:56:00,14.8,11.9,30.19,SSW,199,2.0,3.5,88,0.00,BKN,,0.00,0.0,WeatherDisplay:10.37,2013-01-18 06:56:00,
2013-01-18 01:01:00,14.9,12.0,30.18,SSW,198,0.8,3.0,88,0.00,BKN,,0.00,0.0,WeatherDisplay:10.37,2013-01-18 07:01:00,
2013-01-18 01:06:00,14.9,12.0,30.18,SSW,199,0.4,2.0,88,0.00,BKN,,0.00,0.0,WeatherDisplay:10.37,2013-01-18 07:06:00,
2013-01-18 01:11:00,15.1,12.2,30.18,East,100,0.0,2.3,88,0.00,BKN,,0.00,0.0,WeatherDisplay:10.37,2013-01-18 07:11:00,
2013-01-18 01:16:00,14.9,12.0,30.18,SE,145,1.0,2.0,88,0.00,BKN,,0.00,0.0,WeatherDisplay:10.37,2013-01-18 07:16:00,
2013-01-18 01:21:00,14.9,12.0,30.17,SSW,205,1.1,3.5,88,0.00,BKN,,0.00,0.0,WeatherDisplay:10.37,2013-01-18 07:21:00,
2013-01-18 01:26:00,14.9,12.0,30.17,SSW,200,1.1,3.5,88,0.00,BKN,,0.00,0.0,WeatherDisplay:10.37,2013-01-18 07:26:00,
2013-01-18 01:31:00,14.9,12.0,30.17,SE,137,0.6,2.3,88,0.00,BKN,,0.00,0.0,WeatherDisplay:10.37,2013-01-18 07:31:00,
2013-01-18 01:36:00,15.1,12.2,30.16,West,264,1.8,4.0,88,0.00,BKN,,0.00,0.0,WeatherDisplay:10.37,2013-01-18 07:36:00,
2013-01-18 01:41:00,15.2,12.3,30.16,WNW,289,0.8,3.5,88,0.00,BKN,,0.00,0.0,WeatherDisplay:10.37,2013-01-18 07:41:00,
2013-01-18 01:46:00,15.2,12.3,30.16,SE,142,0.9,2.3,88,0.00,BKN,,0.00,0.0,WeatherDisplay:10.37,2013-01-18 07:46:00,
2013-01-18 01:51:00,15.3,12.4,30.15,SE,139,0.4,2.3,88,0.00,BKN,,0.00,0.0,WeatherDisplay:10.37,2013-01-18 07:51:00,
2013-01-18 01:56:00,15.3,12.4,30.15,East,85,1.7,3.5,88,0.00,BKN,,0.00,0.0,WeatherDisplay:10.37,2013-01-18 07:56:00,
2013-01-18 02:01:00,15.3,12.4,30.15,SSW,200,1.6,3.0,88,0.00,BKN,,0.00,0.0,WeatherDisplay:10.37,2013-01-18 08:01:00,
2013-01-18 02:06:00,15.4,12.5,30.14,SW,216,0.9,3.5,88,0.00,BKN,,0.00,0.0,WeatherDisplay:10.37,2013-01-18 08:06:00,
2013-01-18 02:11:00,15.3,12.4,30.14,SW,215,2.3,5.0,88,0.00,BKN,,0.00,0.0,WeatherDisplay:10.37,2013-01-18 08:11:00,
2013-01-18 02:16:00,15.4,12.5,30.14,South,187,2.3,4.0,88,0.00,BKN,,0.00,0.0,WeatherDisplay:10.37,2013-01-18 08:16:00,
2013-01-18 02:21:00,15.5,12.6,30.14,South,189,1.0,4.0,88,0.00,BKN,,0.00,0.0,WeatherDisplay:10.37,2013-01-18 08:21:00,
2013-01-18 02:26:00,15.7,12.8,30.14,South,190,2.2,4.0,88,0.00,BKN,,0.00,0.0,WeatherDisplay:10.37,2013-01-18 08:26:00,
2013-01-18 02:31:00,15.6,12.7,30.13,South,181,2.2,5.0,88,0.00,BKN,,0.00,0.0,WeatherDisplay:10.37,2013-01-18 08:31:00,
2013-01-18 02:36:00,15.8,12.9,30.13,SSE,161,1.9,4.0,88,0.00,BKN,,0.00,0.0,WeatherDisplay:10.37,2013-01-18 08:36:00,
2013-01-18 02:41:00,15.8,12.9,30.13,SSE,150,1.3,3.5,88,0.00,BKN,,0.00,0.0,WeatherDisplay:10.37,2013-01-18 08:41:00,
2013-01-18 02:46:00,15.9,13.0,30.12,SSW,212,2.0,4.0,88,0.00,BKN,,0.00,0.0,WeatherDisplay:10.37,2013-01-18 08:46:00,
2013-01-18 02:51:00,15.9,13.0,30.12,South,189,2.5,5.0,88,0.00,BKN,,0.00,0.0,WeatherDisplay:10.37,2013-01-18 08:51:00,
2013-01-18 02:56:00,15.9,13.0,30.12,SW,225,0.6,3.5,88,0.00,BKN,,0.00,0.0,WeatherDisplay:10.37,2013-01-18 08:56:00,
2013-01-18 03:01:00,15.8,12.9,30.11,SSW,196,1.5,4.0,88,0.00,BKN,,0.00,0.0,WeatherDisplay:10.37,2013-01-18 09:01:00,
2013-01-18 03:06:00,15.9,13.0,30.10,South,185,0.3,3.5,88,0.00,BKN,,0.00,0.0,WeatherDisplay:10.37,2013-01-18 09:06:00,
2013-01-18 03:11:00,15.9,13.0,30.10,South,191,1.0,1.1,88,0.00,BKN,,0.00,0.0,WeatherDisplay:10.37,2013-01-18 09:11:00,
2013-01-18 03:16:00,15.9,13.0,30.09,South,190,3.1,6.0,88,0.00,BKN,,0.00,0.0,WeatherDisplay:10.37,2013-01-18 09:16:00,
2013-01-18 03:21:00,15.9,13.0,30.10,SSW,207,3.9,6.0,88,0.00,BKN,,0.00,0.0,WeatherDisplay:10.37,2013-01-18 09:21:00,
2013-01-18 03:26:00,16.0,13.3,30.09,SSE,155,1.4,5.8,89,0.00,BKN,,0.00,0.0,WeatherDisplay:10.37,2013-01-18 09:26:00,
2013-01-18 03:31:00,16.1,13.4,30.08,SW,225,2.7,4.0,89,0.00,BKN,,0.00,0.0,WeatherDisplay:10.37,2013-01-18 09:31:00,
2013-01-18 03:36:00,16.2,13.5,30.08,SSW,194,2.8,6.0,89,0.00,BKN,,0.00,0.0,WeatherDisplay:10.37,2013-01-18 09:36:00,
2013-01-18 03:41:00,16.3,13.6,30.08,South,179,3.6,8.0,89,0.00,BKN,,0.00,0.0,WeatherDisplay:10.37,2013-01-18 09:41:00,
2013-01-18 03:46:00,16.3,13.6,30.08,ENE,71,2.6,5.0,89,0.00,BKN,,0.00,0.0,WeatherDisplay:10.37,2013-01-18 09:46:00,
2013-01-18 03:51:00,16.4,13.7,30.07,South,188,3.2,6.0,89,0.00,BKN,,0.00,0.0,WeatherDisplay:10.37,2013-01-18 09:51:00,
2013-01-18 03:56:00,16.4,13.7,30.06,SSW,196,2.0,4.6,89,0.00,BKN,,0.00,0.0,WeatherDisplay:10.37,2013-01-18 09:56:00,
2013-01-18 04:01:00,16.6,13.9,30.06,SSW,206,2.3,4.0,89,0.00,BKN,,0.00,0.0,WeatherDisplay:10.37,2013-01-18 10:01:00,
2013-01-18 04:06:00,16.7,14.0,30.05,South,186,1.8,4.0,89,0.00,BKN,,0.00,0.0,WeatherDisplay:10.37,2013-01-18 10:06:00,
2013-01-18 04:11:00,16.7,14.0,30.04,South,171,2.8,5.0,89,0.00,BKN,,0.00,0.0,WeatherDisplay:10.37,2013-01-18 10:11:00,
2013-01-18 04:16:00,16.7,14.0,30.03,SSW,206,2.7,4.0,89,0.00,BKN,,0.00,0.0,WeatherDisplay:10.37,2013-01-18 10:16:00,
2013-01-18 04:21:00,16.8,14.1,30.03,SW,223,2.3,5.0,89,0.00,BKN,,0.00,0.0,WeatherDisplay:10.37,2013-01-18 10:21:00,
2013-01-18 04:26:00,16.8,14.1,30.02,South,177,2.2,5.8,89,0.00,BKN,,0.00,0.0,WeatherDisplay:10.37,2013-01-18 10:26:00,
2013-01-18 04:31:00,16.9,14.2,30.01,SSE,162,3.6,6.0,89,0.00,BKN,,0.00,0.0,WeatherDisplay:10.37,2013-01-18 10:31:00,
2013-01-18 04:36:00,16.9,14.2,30.00,SSE,148,6.0,9.2,89,0.00,BKN,,0.00,0.0,WeatherDisplay:10.37,2013-01-18 10:36:00,
2013-01-18 04:41:00,17.0,14.3,30.00,South,186,3.7,6.9,89,0.00,BKN,,0.00,0.0,WeatherDisplay:10.37,2013-01-18 10:41:00,
2013-01-18 04:46:00,17.1,14.4,30.00,SSW,195,4.4,7.0,89,0.00,BKN,,0.00,0.0,WeatherDisplay:10.37,2013-01-18 10:46:00,
2013-01-18 04:51:00,17.1,14.2,30.00,South,171,3.6,7.0,88,0.00,BKN,,0.00,0.0,WeatherDisplay:10.37,2013-01-18 10:51:00,
2013-01-18 04:56:00,17.1,14.2,29.99,South,184,3.5,8.1,88,0.00,BKN,,0.00,0.0,WeatherDisplay:10.37,2013-01-18 10:56:00,
2013-01-18 05:01:00,17.2,14.3,29.99,SE,146,7.1,13.0,88,0.00,BKN,,0.00,0.0,WeatherDisplay:10.37,2013-01-18 11:01:00,
2013-01-18 05:06:00,17.3,14.4,29.98,South,169,2.2,4.0,88,0.00,BKN,,0.00,0.0,WeatherDisplay:10.37,2013-01-18 11:06:00,
2013-01-18 05:11:00,17.4,14.2,29.98,SSW,197,3.4,5.8,87,0.00,BKN,,0.00,0.0,WeatherDisplay:10.37,2013-01-18 11:11:00,
2013-01-18 05:16:00,17.5,14.3,29.98,SSE,167,3.6,5.0,87,0.00,BKN,,0.00,0.0,WeatherDisplay:10.37,2013-01-18 11:16:00,
2013-01-18 05:21:00,17.5,14.3,29.97,South,171,1.8,4.6,87,0.00,BKN,,0.00,0.0,WeatherDisplay:10.37,2013-01-18 11:21:00,
2013-01-18 05:26:00,17.6,14.4,29.97,South,188,3.9,5.0,87,0.00,BKN,,0.00,0.0,WeatherDisplay:10.37,2013-01-18 11:26:00,
2013-01-18 05:32:00,17.7,14.5,29.96,South,188,3.4,5.0,87,0.00,BKN,,0.00,0.0,WeatherDisplay:10.37,2013-01-18 11:32:00,
2013-01-18 05:37:00,17.8,14.3,29.96,SSE,168,3.5,7.0,86,0.00,BKN,,0.00,0.0,WeatherDisplay:10.37,2013-01-18 11:37:00,
2013-01-18 05:42:00,17.9,14.4,29.95,SSE,148,2.6,5.8,86,0.00,BKN,,0.00,0.0,WeatherDisplay:10.37,2013-01-18 11:42:00,
2013-01-18 05:47:00,18.0,14.5,29.95,South,169,3.7,6.0,86,0.00,BKN,,0.00,0.0,WeatherDisplay:10.37,2013-01-18 11:47:00,
2013-01-18 05:52:00,18.1,14.6,29.94,South,180,4.5,9.0,86,0.00,BKN,,0.00,0.0,WeatherDisplay:10.37,2013-01-18 11:52:00,
2013-01-18 05:57:00,18.3,14.8,29.94,South,178,3.7,7.0,86,0.00,BKN,,0.00,0.0,WeatherDisplay:10.37,2013-01-18 11:57:00,
2013-01-18 06:02:00,18.5,15.0,29.93,SSE,161,3.8,6.0,86,0.00,BKN,,0.00,0.0,WeatherDisplay:10.37,2013-01-18 12:02:00,
2013-01-18 06:07:00,18.6,15.1,29.93,SSW,194,2.5,4.0,86,0.00,BKN,,0.00,0.0,WeatherDisplay:10.37,2013-01-18 12:07:00,
2013-01-18 06:12:00,18.7,15.2,29.93,SSW,201,1.8,4.0,86,0.00,BKN,,0.00,0.0,WeatherDisplay:10.37,2013-01-18 12:12:00,
2013-01-18 06:17:00,18.8,15.3,29.92,SE,140,2.7,6.0,86,0.00,BKN,,0.00,0.0,WeatherDisplay:10.37,2013-01-18 12:17:00,
2013-01-18 06:22:00,18.9,15.4,29.92,South,173,2.1,4.0,86,0.00,BKN,,0.00,0.0,WeatherDisplay:10.37,2013-01-18 12:22:00,
2013-01-18 06:27:00,18.9,15.4,29.92,South,182,2.0,5.0,86,0.00,BKN,,0.00,0.0,WeatherDisplay:10.37,2013-01-18 12:27:00,
2013-01-18 06:32:00,19.1,15.6,29.91,SSW,198,2.6,4.0,86,0.00,BKN,,0.00,0.0,WeatherDisplay:10.37,2013-01-18 12:32:00,
2013-01-18 06:37:00,19.1,15.6,29.91,SSE,159,2.6,5.8,86,0.00,BKN,,0.00,0.0,WeatherDisplay:10.37,2013-01-18 12:37:00,
2013-01-18 06:42:00,19.2,15.7,29.91,SSW,198,2.6,5.0,86,0.00,BKN,,0.00,0.0,WeatherDisplay:10.37,2013-01-18 12:42:00,
2013-01-18 06:47:00,19.2,16.0,29.90,SSE,165,3.4,5.0,87,0.00,BKN,,0.00,0.0,WeatherDisplay:10.37,2013-01-18 12:47:00,
2013-01-18 06:52:00,19.3,16.1,29.90,SSW,196,2.1,5.0,87,0.00,BKN,,0.00,0.0,WeatherDisplay:10.37,2013-01-18 12:52:00,
2013-01-18 06:57:00,19.4,16.4,29.90,South,188,3.3,7.0,88,0.00,BKN,,0.00,0.0,WeatherDisplay:10.37,2013-01-18 12:57:00,
2013-01-18 07:02:00,19.6,16.6,29.90,South,180,2.2,5.0,88,0.00,BKN,,0.00,0.0,WeatherDisplay:10.37,2013-01-18 13:02:00,
2013-01-18 07:07:00,19.6,16.6,29.89,SSW,212,1.1,3.5,88,0.00,BKN,,0.00,0.0,WeatherDisplay:10.37,2013-01-18 13:07:00,
2013-01-18 07:12:00,19.7,16.7,29.88,SSW,192,1.6,3.5,88,0.00,BKN,,0.00,0.0,WeatherDisplay:10.37,2013-01-18 13:12:00,
2013-01-18 07:17:00,19.8,16.8,29.88,SSE,157,2.8,6.0,88,0.00,BKN,,0.00,0.0,WeatherDisplay:10.37,2013-01-18 13:17:00,
2013-01-18 07:22:00,20.1,17.1,29.88,South,182,2.0,3.5,88,0.00,BKN,,0.00,0.0,WeatherDisplay:10.37,2013-01-18 13:22:00,
2013-01-18 07:27:00,20.1,17.4,29.88,SW,215,1.5,3.5,89,0.00,BKN,,0.00,0.0,WeatherDisplay:10.37,2013-01-18 13:27:00,
2013-01-18 07:32:00,20.3,17.6,29.88,South,184,1.8,3.5,89,0.00,BKN,,0.00,0.0,WeatherDisplay:10.37,2013-01-18 13:32:00,
2013-01-18 07:37:00,20.4,17.7,29.88,SSE,156,3.4,6.0,89,0.00,BKN,,0.00,0.0,WeatherDisplay:10.37,2013-01-18 13:37:00,
2013-01-18 07:42:00,20.5,17.8,29.87,SSE,157,2.0,4.6,89,0.00,BKN,,0.00,0.0,WeatherDisplay:10.37,2013-01-18 13:42:00,
2013-01-18 07:47:00,20.7,18.0,29.87,South,185,2.5,4.0,89,0.00,BKN,,0.00,0.0,WeatherDisplay:10.37,2013-01-18 13:47:00,
2013-01-18 07:52:00,20.9,18.2,29.87,SSW,192,3.2,5.0,89,0.00,BKN,,0.00,0.0,WeatherDisplay:10.37,2013-01-18 13:52:00,
2013-01-18 07:57:00,21.0,18.3,29.87,South,182,1.9,3.5,89,0.00,BKN,,0.00,0.0,WeatherDisplay:10.37,2013-01-18 13:57:00,
2013-01-18 08:02:00,21.1,18.4,29.86,South,186,1.8,3.5,89,0.00,BKN,,0.00,5.0,WeatherDisplay:10.37,2013-01-18 14:02:00,
2013-01-18 08:07:00,20.9,18.2,29.85,SSW,200,1.1,3.5,89,0.00,BKN,,0.00,7.0,WeatherDisplay:10.37,2013-01-18 14:07:00,
2013-01-18 08:12:00,20.7,18.0,29.85,South,169,1.6,5.0,89,0.00,BKN,,0.00,9.0,WeatherDisplay:10.37,2013-01-18 14:12:00,
2013-01-18 08:17:00,20.6,17.9,29.84,SSE,157,2.1,3.5,89,0.00,BKN,,0.00,16.0,WeatherDisplay:10.37,2013-01-18 14:17:00,
2013-01-18 08:22:00,20.6,18.1,29.84,SSW,192,1.4,4.0,90,0.00,BKN,,0.00,26.0,WeatherDisplay:10.37,2013-01-18 14:22:00,
2013-01-18 08:27:00,20.9,18.4,29.84,SSE,167,3.4,5.0,90,0.00,BKN,,0.00,32.0,WeatherDisplay:10.37,2013-01-18 14:27:00,
2013-01-18 08:32:00,21.3,18.8,29.85,SSW,201,1.6,3.5,90,0.00,BKN,,0.00,42.0,WeatherDisplay:10.37,2013-01-18 14:32:00,
2013-01-18 08:37:00,21.6,19.1,29.85,SSE,161,2.5,4.0,90,0.00,BKN,,0.00,44.0,WeatherDisplay:10.37,2013-01-18 14:37:00,
2013-01-18 08:42:00,21.9,19.4,29.84,SSE,159,2.3,4.0,90,0.00,BKN,,0.00,39.0,WeatherDisplay:10.37,2013-01-18 14:42:00,
2013-01-18 08:47:00,22.2,19.7,29.84,South,188,1.7,4.0,90,0.00,BKN,,0.00,42.0,WeatherDisplay:10.37,2013-01-18 14:47:00,
2013-01-18 08:52:00,22.4,19.9,29.85,South,187,2.9,5.0,90,0.00,SCT,,0.00,53.0,WeatherDisplay:10.37,2013-01-18 14:52:00,
2013-01-18 08:57:00,22.7,20.2,29.84,South,184,1.9,3.5,90,0.00,SCT,,0.00,47.0,WeatherDisplay:10.37,2013-01-18 14:57:00,
2013-01-18 09:02:00,22.9,20.4,29.84,SE,137,1.6,3.5,90,0.00,SCT,,0.00,44.0,WeatherDisplay:10.37,2013-01-18 15:02:00,
2013-01-18 09:07:00,23.2,20.7,29.84,South,171,2.1,3.5,90,0.00,SCT,,0.00,49.0,WeatherDisplay:10.37,2013-01-18 15:07:00,
2013-01-18 09:12:00,23.5,21.0,29.84,SW,219,2.2,3.5,90,0.00,SCT,,0.00,60.0,WeatherDisplay:10.37,2013-01-18 15:12:00,
2013-01-18 09:17:00,23.8,21.3,29.84,South,176,0.7,2.0,90,0.00,SCT,,0.00,65.0,WeatherDisplay:10.37,2013-01-18 15:17:00,
2013-01-18 09:22:00,24.0,21.2,29.84,South,190,1.5,3.0,89,0.00,FEW,,0.00,67.0,WeatherDisplay:10.37,2013-01-18 15:22:00,
2013-01-18 09:27:00,24.1,21.3,29.84,South,178,2.2,4.0,89,0.00,FEW,,0.00,67.0,WeatherDisplay:10.37,2013-01-18 15:27:00,
2013-01-18 09:32:00,24.2,21.4,29.84,South,172,1.2,3.5,89,0.00,SCT,,0.00,69.0,WeatherDisplay:10.37,2013-01-18 15:32:00,
2013-01-18 09:37:00,24.4,21.6,29.84,South,176,0.0,1.1,89,0.00,CLR,,0.00,248.0,WeatherDisplay:10.37,2013-01-18 15:37:00,
2013-01-18 09:42:00,25.4,22.6,29.84,SSW,200,2.3,4.0,89,0.00,CLR,,0.00,343.0,WeatherDisplay:10.37,2013-01-18 15:42:00,
2013-01-18 09:47:00,26.8,23.7,29.83,South,183,1.8,4.6,88,0.00,CLR,,0.00,396.0,WeatherDisplay:10.37,2013-01-18 15:47:00,
2013-01-18 09:52:00,27.4,24.0,29.83,SSE,165,2.5,4.0,87,0.00,CLR,,0.00,230.0,WeatherDisplay:10.37,2013-01-18 15:52:00,
2013-01-18 09:57:00,27.6,24.0,29.83,South,186,4.4,6.0,86,0.00,CLR,,0.00,178.0,WeatherDisplay:10.37,2013-01-18 15:57:00,
2013-01-18 10:02:00,28.0,24.6,29.83,SSW,195,3.4,5.8,87,0.00,CLR,,0.00,220.0,WeatherDisplay:10.37,2013-01-18 16:02:00,
2013-01-18 10:07:00,28.4,25.0,29.82,SSW,213,3.1,5.0,87,0.00,CLR,,0.00,223.0,WeatherDisplay:10.37,2013-01-18 16:07:00,
2013-01-18 10:12:00,29.1,26.0,29.82,SSW,200,3.9,6.0,88,0.00,CLR,,0.00,181.0,WeatherDisplay:10.37,2013-01-18 16:12:00,
2013-01-18 10:17:00,29.6,26.2,29.82,SSW,197,4.1,6.9,87,0.00,CLR,,0.00,153.0,WeatherDisplay:10.37,2013-01-18 16:17:00,
2013-01-18 10:22:00,29.9,26.5,29.81,SSW,200,4.3,6.0,87,0.00,CLR,,0.00,125.0,WeatherDisplay:10.37,2013-01-18 16:22:00,
2013-01-18 10:27:00,29.9,26.2,29.81,South,186,3.1,6.0,86,0.00,CLR,,0.00,169.0,WeatherDisplay:10.37,2013-01-18 16:27:00,
2013-01-18 10:32:00,30.6,26.9,29.81,SW,215,3.3,6.0,86,0.00,CLR,,0.00,345.0,WeatherDisplay:10.37,2013-01-18 16:32:00,
2013-01-18 10:37:00,31.1,26.8,29.81,SSW,198,4.3,7.0,84,0.00,CLR,,0.00,345.0,WeatherDisplay:10.37,2013-01-18 16:37:00,
2013-01-18 10:42:00,31.4,27.1,29.81,South,173,3.0,6.0,84,0.00,CLR,,0.00,336.0,WeatherDisplay:10.37,2013-01-18 16:42:00,
2013-01-18 10:47:00,31.7,27.1,29.80,SSE,167,4.2,7.0,83,0.00,CLR,,0.00,320.0,WeatherDisplay:10.37,2013-01-18 16:47:00,
2013-01-18 10:52:00,32.1,27.5,29.80,SSE,155,5.1,9.0,83,0.00,CLR,,0.00,327.0,WeatherDisplay:10.37,2013-01-18 16:52:00,
2013-01-18 10:57:00,32.6,27.7,29.80,South,176,5.4,7.0,82,0.00,CLR,,0.00,348.0,WeatherDisplay:10.37,2013-01-18 16:57:00,
2013-01-18 11:02:00,32.9,27.7,29.80,SSW,200,4.1,6.0,81,0.00,CLR,,0.00,278.0,WeatherDisplay:10.37,2013-01-18 17:02:00,
2013-01-18 11:07:00,33.4,27.9,29.80,SW,224,2.4,4.0,80,0.00,CLR,,0.00,350.0,WeatherDisplay:10.37,2013-01-18 17:07:00,
2013-01-18 11:12:00,33.9,28.1,29.80,SSW,196,5.6,9.2,79,0.00,CLR,,0.00,292.0,WeatherDisplay:10.37,2013-01-18 17:12:00,
2013-01-18 11:17:00,34.2,28.4,29.79,West,268,2.6,4.6,79,0.00,CLR,,0.00,380.0,WeatherDisplay:10.37,2013-01-18 17:17:00,
2013-01-18 11:22:00,34.7,28.2,29.79,SSE,164,4.2,6.0,77,0.00,CLR,,0.00,271.0,WeatherDisplay:10.37,2013-01-18 17:22:00,
2013-01-18 11:27:00,34.7,28.2,29.79,SW,219,4.4,5.0,77,0.00,CLR,,0.00,297.0,WeatherDisplay:10.37,2013-01-18 17:27:00,
2013-01-18 11:32:00,35.2,28.7,29.79,SSW,200,1.5,3.5,77,0.00,CLR,,0.00,392.0,WeatherDisplay:10.37,2013-01-18 17:32:00,
2013-01-18 11:37:00,35.8,28.6,29.78,South,170,0.9,3.5,75,0.00,CLR,,0.00,381.0,WeatherDisplay:10.37,2013-01-18 17:37:00,
2013-01-18 11:42:00,36.4,28.9,29.78,West,281,1.7,4.0,74,0.00,CLR,,0.00,404.0,WeatherDisplay:10.37,2013-01-18 17:42:00,
2013-01-18 11:47:00,37.0,29.1,29.77,SSW,211,3.7,6.0,73,0.01,RA,,0.01,397.0,WeatherDisplay:10.37,2013-01-18 17:47:00,
2013-01-18 11:52:00,37.4,29.2,29.77,WSW,242,6.3,8.1,72,0.01,RA,,0.01,301.0,WeatherDisplay:10.37,2013-01-18 17:52:00,
2013-01-18 11:57:00,37.5,29.3,29.76,SW,228,3.2,7.0,72,0.01,CLR,,0.01,371.0,WeatherDisplay:10.37,2013-01-18 17:57:00,
2013-01-18 12:02:00,37.7,29.1,29.76,SSE,148,2.8,6.0,71,0.01,CLR,,0.01,369.0,WeatherDisplay:10.37,2013-01-18 18:02:00,
2013-01-18 12:07:00,38.1,29.2,29.76,West,261,2.6,5.0,70,0.01,CLR,,0.01,380.0,WeatherDisplay:10.37,2013-01-18 18:07:00,
2013-01-18 12:12:00,38.2,29.3,29.76,WNW,302,2.4,6.0,70,0.01,CLR,,0.01,332.0,WeatherDisplay:10.37,2013-01-18 18:12:00,
2013-01-18 12:17:00,38.2,29.3,29.76,WSW,248,4.5,10.0,70,0.01,CLR,,0.01,357.0,WeatherDisplay:10.37,2013-01-18 18:17:00,
2013-01-18 12:22:00,37.9,29.0,29.76,SW,217,3.0,5.0,70,0.01,CLR,,0.01,385.0,WeatherDisplay:10.37,2013-01-18 18:22:00,
2013-01-18 12:27:00,37.8,28.9,29.76,SSW,213,3.1,5.0,70,0.01,CLR,,0.01,366.0,WeatherDisplay:10.37,2013-01-18 18:27:00,
2013-01-18 12:32:00,37.7,29.1,29.75,SW,232,4.5,9.2,71,0.01,CLR,,0.01,369.0,WeatherDisplay:10.37,2013-01-18 18:32:00,
2013-01-18 12:37:00,37.9,29.3,29.75,West,279,4.0,8.0,71,0.01,CLR,,0.01,401.0,WeatherDisplay:10.37,2013-01-18 18:37:00,
2013-01-18 12:42:00,37.8,29.2,29.75,SW,227,5.4,9.0,71,0.01,CLR,,0.01,309.0,WeatherDisplay:10.37,2013-01-18 18:42:00,
2013-01-18 12:47:00,37.7,29.1,29.75,WNW,283,2.9,6.0,71,0.00,CLR,,0.01,279.0,WeatherDisplay:10.37,2013-01-18 18:47:00,
2013-01-18 12:52:00,37.8,29.6,29.75,WNW,298,4.0,9.0,72,0.00,CLR,,0.01,343.0,WeatherDisplay:10.37,2013-01-18 18:52:00,
2013-01-18 12:57:00,38.0,29.4,29.75,WNW,288,3.3,4.0,71,0.00,CLR,,0.01,297.0,WeatherDisplay:10.37,2013-01-18 18:57:00,
2013-01-18 13:02:00,38.0,29.4,29.75,WNW,295,3.1,6.9,71,0.00,CLR,,0.01,288.0,WeatherDisplay:10.37,2013-01-18 19:02:00,
2013-01-18 13:07:00,37.9,29.3,29.74,WNW,288,1.5,3.5,71,0.00,CLR,,0.01,257.0,WeatherDisplay:10.37,2013-01-18 19:07:00,
2013-01-18 13:12:00,37.9,29.3,29.74,SSW,200,0.5,3.5,71,0.00,CLR,,0.01,230.0,WeatherDisplay:10.37,2013-01-18 19:12:00,
2013-01-18 13:17:00,37.9,29.3,29.73,WNW,293,3.4,8.0,71,0.00,CLR,,0.01,255.0,WeatherDisplay:10.37,2013-01-18 19:17:00,
2013-01-18 13:22:00,37.8,29.2,29.75,West,279,2.5,5.0,71,0.00,CLR,,0.01,241.0,WeatherDisplay:10.37,2013-01-18 19:22:00,
2013-01-18 13:27:00,37.9,29.3,29.75,WNW,284,2.5,5.0,71,0.00,CLR,,0.01,200.0,WeatherDisplay:10.37,2013-01-18 19:27:00,
2013-01-18 13:32:00,37.7,29.1,29.75,WNW,282,4.4,6.9,71,0.00,CLR,,0.01,190.0,WeatherDisplay:10.37,2013-01-18 19:32:00,
2013-01-18 13:37:00,37.6,29.0,29.75,SW,215,3.1,7.0,71,0.00,CLR,,0.02,204.0,WeatherDisplay:10.37,2013-01-18 19:37:00,
2013-01-18 13:42:00,37.9,29.3,29.75,WNW,288,3.2,5.0,71,0.01,RA,,0.02,353.0,WeatherDisplay:10.37,2013-01-18 19:42:00,
2013-01-18 13:47:00,38.1,29.2,29.75,WSW,242,2.2,7.0,70,0.01,CLR,,0.02,329.0,WeatherDisplay:10.37,2013-01-18 19:47:00,
2013-01-18 13:52:00,38.1,29.2,29.75,SW,217,3.2,6.9,70,0.01,CLR,,0.02,218.0,WeatherDisplay:10.37,2013-01-18 19:52:00,
2013-01-18 13:57:00,38.1,29.5,29.75,West,263,2.8,5.0,71,0.01,CLR,,0.02,313.0,WeatherDisplay:10.37,2013-01-18 19:57:00,
2013-01-18 14:02:00,38.0,29.1,29.75,WNW,285,4.8,7.0,70,0.01,CLR,,0.02,272.0,WeatherDisplay:10.37,2013-01-18 20:02:00,
2013-01-18 14:07:00,38.1,29.2,29.75,NW,309,7.9,11.5,70,0.01,CLR,,0.02,257.0,WeatherDisplay:10.37,2013-01-18 20:07:00,
2013-01-18 14:12:00,38.2,29.3,29.75,WNW,286,1.6,5.0,70,0.01,CLR,,0.02,244.0,WeatherDisplay:10.37,2013-01-18 20:12:00,
2013-01-18 14:17:00,38.1,29.5,29.75,WNW,289,2.6,7.0,71,0.01,CLR,,0.02,206.0,WeatherDisplay:10.37,2013-01-18 20:17:00,
2013-01-18 14:22:00,38.0,29.1,29.75,NW,307,2.6,6.0,70,0.01,CLR,,0.02,160.0,WeatherDisplay:10.37,2013-01-18 20:22:00,
2013-01-18 14:27:00,37.7,29.1,29.75,WNW,300,3.1,5.0,71,0.01,CLR,,0.02,185.0,WeatherDisplay:10.37,2013-01-18 20:27:00,
2013-01-18 14:32:00,37.5,28.9,29.75,WNW,296,2.4,6.9,71,0.02,RA,,0.03,146.0,WeatherDisplay:10.37,2013-01-18 20:32:00,
2013-01-18 14:37:00,37.3,29.1,29.75,West,277,3.7,6.0,72,0.01,RA,,0.03,146.0,WeatherDisplay:10.37,2013-01-18 20:37:00,
2013-01-18 14:42:00,37.1,28.9,29.75,West,280,5.3,9.2,72,0.01,CLR,,0.03,174.0,WeatherDisplay:10.37,2013-01-18 20:42:00,
2013-01-18 14:47:00,37.0,28.8,29.75,West,261,4.6,10.4,72,0.01,CLR,,0.03,156.0,WeatherDisplay:10.37,2013-01-18 20:47:00,
2013-01-18 14:52:00,37.0,28.8,29.75,NW,312,4.8,10.0,72,0.01,CLR,,0.03,176.0,WeatherDisplay:10.37,2013-01-18 20:52:00,
2013-01-18 14:57:00,37.0,28.8,29.75,NW,313,3.9,6.9,72,0.01,CLR,,0.03,153.0,WeatherDisplay:10.37,2013-01-18 20:57:00,
2013-01-18 15:02:00,36.9,29.1,29.75,WNW,302,3.0,4.0,73,0.01,CLR,,0.03,134.0,WeatherDisplay:10.37,2013-01-18 21:02:00,
2013-01-18 15:07:00,36.8,29.0,29.75,WSW,251,1.3,3.5,73,0.01,CLR,,0.03,176.0,WeatherDisplay:10.37,2013-01-18 21:07:00,
2013-01-18 15:12:00,36.8,29.0,29.75,WSW,251,1.0,1.1,73,0.01,CLR,,0.03,176.0,WeatherDisplay:10.37,2013-01-18 21:12:00,
2013-01-18 15:17:00,36.8,29.0,29.75,North,11,0.6,1.1,73,0.01,CLR,,0.03,0.0,WeatherDisplay:10.37,2013-01-18 21:17:00,
2013-01-18 15:22:00,36.8,29.0,29.76,North,0,0.0,0.0,73,0.01,OVC,,0.03,0.0,WeatherDisplay:10.37,2013-01-18 21:22:00,
2013-01-18 15:27:00,36.8,29.0,29.76,North,0,0.0,0.0,73,0.01,OVC,,0.03,0.0,WeatherDisplay:10.37,2013-01-18 21:27:00,
2013-01-18 15:32:00,36.8,29.0,29.76,North,0,0.0,0.0,73,0.00,OVC,,0.03,0.0,WeatherDisplay:10.37,2013-01-18 21:32:00,
2013-01-18 15:37:00,36.8,29.0,29.76,North,0,0.0,0.0,73,0.00,OVC,,0.03,0.0,WeatherDisplay:10.37,2013-01-18 21:37:00,
2013-01-18 15:42:00,36.8,29.0,29.76,North,0,0.0,0.0,73,0.00,OVC,,0.03,0.0,WeatherDisplay:10.37,2013-01-18 21:42:00,
2013-01-18 15:47:00,36.8,29.0,29.76,North,0,0.0,0.0,73,0.00,OVC,,0.03,0.0,WeatherDisplay:10.37,2013-01-18 21:47:00,
2013-01-18 15:52:00,35.2,28.1,29.76,West,262,2.9,5.0,75,0.00,SCT,,0.03,62.0,WeatherDisplay:10.37,2013-01-18 21:52:00,
2013-01-18 15:57:00,35.0,27.9,29.76,WNW,288,3.2,5.0,75,0.00,SCT,,0.03,47.0,WeatherDisplay:10.37,2013-01-18 21:57:00,
2013-01-18 16:02:00,34.7,27.9,29.76,WSW,257,1.4,4.0,76,0.00,BKN,,0.03,26.0,WeatherDisplay:10.37,2013-01-18 22:02:00,
2013-01-18 16:07:00,34.4,27.6,29.76,WNW,291,2.9,5.0,76,0.00,BKN,,0.03,28.0,WeatherDisplay:10.37,2013-01-18 22:07:00,
2013-01-18 16:12:00,34.3,27.8,29.76,WNW,302,2.2,3.5,77,0.00,BKN,,0.03,37.0,WeatherDisplay:10.37,2013-01-18 22:12:00,
2013-01-18 16:17:00,34.4,27.9,29.77,West,263,2.3,5.0,77,0.00,BKN,,0.03,37.0,WeatherDisplay:10.37,2013-01-18 22:17:00,
2013-01-18 16:22:00,34.4,27.6,29.77,WNW,294,2.3,5.0,76,0.00,BKN,,0.03,30.0,WeatherDisplay:10.37,2013-01-18 22:22:00,
2013-01-18 16:27:00,34.5,28.0,29.77,WNW,294,2.6,5.0,77,0.00,BKN,,0.03,28.0,WeatherDisplay:10.37,2013-01-18 22:27:00,
2013-01-18 16:32:00,34.3,27.5,29.78,WNW,288,3.8,5.0,76,0.00,BKN,,0.03,25.0,WeatherDisplay:10.37,2013-01-18 22:32:00,
2013-01-18 16:37:00,34.2,27.7,29.77,WNW,288,2.4,4.0,77,0.00,BKN,,0.03,18.0,WeatherDisplay:10.37,2013-01-18 22:37:00,
2013-01-18 16:42:00,34.1,27.6,29.77,WNW,293,4.0,7.0,77,0.00,BKN,,0.03,16.0,WeatherDisplay:10.37,2013-01-18 22:42:00,
2013-01-18 16:47:00,34.0,27.5,29.78,WNW,296,4.3,6.0,77,0.01,RA,,0.04,12.0,WeatherDisplay:10.37,2013-01-18 22:47:00,
2013-01-18 16:52:00,33.8,27.7,29.78,NW,306,3.0,5.0,78,0.01,RA,,0.04,11.0,WeatherDisplay:10.37,2013-01-18 22:52:00,
2013-01-18 16:57:00,33.5,27.4,29.78,WNW,289,1.1,3.5,78,0.01,BKN,,0.04,7.0,WeatherDisplay:10.37,2013-01-18 22:57:00,
2013-01-18 17:02:00,33.3,27.5,29.78,WNW,288,0.9,2.0,79,0.01,BKN,,0.04,5.0,WeatherDisplay:10.37,2013-01-18 23:02:00,
2013-01-18 17:07:00,33.1,27.3,29.78,WNW,285,2.2,9.0,79,0.01,BKN,,0.04,0.0,WeatherDisplay:10.37,2013-01-18 23:07:00,
2013-01-18 17:12:00,33.1,27.6,29.78,WNW,298,3.2,6.0,80,0.01,BKN,,0.04,0.0,WeatherDisplay:10.37,2013-01-18 23:12:00,
2013-01-18 17:17:00,33.0,27.5,29.78,West,277,3.9,5.0,80,0.01,BKN,,0.04,0.0,WeatherDisplay:10.37,2013-01-18 23:17:00,
2013-01-18 17:22:00,32.9,27.7,29.78,WNW,284,4.3,7.0,81,0.01,BKN,,0.04,0.0,WeatherDisplay:10.37,2013-01-18 23:22:00,
2013-01-18 17:27:00,32.6,27.4,29.78,WNW,283,2.0,3.5,81,0.01,BKN,,0.04,0.0,WeatherDisplay:10.37,2013-01-18 23:27:00,
2013-01-18 17:32:00,32.5,27.3,29.79,West,276,4.5,8.1,81,0.01,BKN,,0.04,0.0,WeatherDisplay:10.37,2013-01-18 23:32:00,
2013-01-18 17:37:00,32.4,27.5,29.79,West,267,4.5,7.0,82,0.02,RA,,0.05,0.0,WeatherDisplay:10.37,2013-01-18 23:37:00,
2013-01-18 17:42:00,32.4,27.5,29.79,WNW,286,3.4,6.0,82,0.02,RA,,0.05,0.0,WeatherDisplay:10.37,2013-01-18 23:42:00,
2013-01-18 17:47:00,32.3,27.4,29.79,WNW,290,4.1,6.0,82,0.01,BKN,,0.05,0.0,WeatherDisplay:10.37,2013-01-18 23:47:00,
2013-01-18 17:52:00,32.3,27.4,29.79,WNW,283,5.8,9.2,82,0.01,BKN,,0.05,0.0,WeatherDisplay:10.37,2013-01-18 23:52:00,
2013-01-18 17:57:00,32.3,27.4,29.79,WNW,290,4.0,6.0,82,0.01,BKN,,0.05,0.0,WeatherDisplay:10.37,2013-01-18 23:57:00,
2013-01-18 18:02:00,32.1,27.2,29.79,WNW,283,3.3,4.0,82,0.01,BKN,,0.05,0.0,WeatherDisplay:10.37,2013-01-19 00:02:00,
2013-01-18 18:07:00,32.1,27.2,29.80,WNW,300,6.3,12.0,82,0.01,BKN,,0.05,0.0,WeatherDisplay:10.37,2013-01-19 00:07:00,
2013-01-18 18:12:00,32.1,27.5,29.80,West,277,4.4,8.0,83,0.01,BKN,,0.05,0.0,WeatherDisplay:10.37,2013-01-19 00:12:00,
2013-01-18 18:17:00,32.0,27.1,29.80,WNW,290,3.9,8.0,82,0.01,BKN,,0.05,0.0,WeatherDisplay:10.37,2013-01-19 00:17:00,
2013-01-18 18:22:00,31.9,27.0,29.80,WNW,303,2.7,7.0,82,0.01,BKN,,0.05,0.0,WeatherDisplay:10.37,2013-01-19 00:22:00,
2013-01-18 18:27:00,31.9,27.0,29.80,WNW,286,7.5,11.5,82,0.01,BKN,,0.05,0.0,WeatherDisplay:10.37,2013-01-19 00:27:00,
2013-01-18 18:32:00,31.8,26.9,29.80,WNW,282,5.5,10.4,82,0.01,BKN,,0.05,0.0,WeatherDisplay:10.37,2013-01-19 00:32:00,
2013-01-18 18:37:00,31.8,26.9,29.80,WNW,284,4.7,8.1,82,0.00,BKN,,0.05,0.0,WeatherDisplay:10.37,2013-01-19 00:37:00,
2013-01-18 18:42:00,31.7,26.8,29.80,NW,309,4.7,6.9,82,0.00,BKN,,0.05,0.0,WeatherDisplay:10.37,2013-01-19 00:42:00,
2013-01-18 18:47:00,31.7,26.8,29.80,West,275,4.9,11.5,82,0.00,BKN,,0.05,0.0,WeatherDisplay:10.37,2013-01-19 00:47:00,
2013-01-18 18:52:00,31.5,26.6,29.80,WNW,295,3.5,9.2,82,0.00,BKN,,0.05,0.0,WeatherDisplay:10.37,2013-01-19 00:52:00,
2013-01-18 18:57:00,31.3,26.4,29.80,WNW,287,3.3,6.0,82,0.00,BKN,,0.05,0.0,WeatherDisplay:10.37,2013-01-19 00:57:00,
2013-01-18 19:02:00,31.2,26.6,29.80,NW,305,1.4,4.0,83,0.00,BKN,,0.05,0.0,WeatherDisplay:10.37,2013-01-19 01:02:00,
2013-01-18 19:07:00,31.1,26.5,29.80,WSW,238,2.9,5.0,83,0.00,BKN,,0.05,0.0,WeatherDisplay:10.37,2013-01-19 01:07:00,
2013-01-18 19:12:00,31.0,26.4,29.80,WNW,286,3.7,8.0,83,0.00,BKN,,0.05,0.0,WeatherDisplay:10.37,2013-01-19 01:12:00,
2013-01-18 19:17:00,30.9,26.3,29.80,West,274,2.0,4.0,83,0.00,BKN,,0.05,0.0,WeatherDisplay:10.37,2013-01-19 01:17:00,
2013-01-18 19:22:00,30.7,26.1,29.80,South,191,0.7,4.0,83,0.00,BKN,,0.05,0.0,WeatherDisplay:10.37,2013-01-19 01:22:00,
2013-01-18 19:27:00,30.5,26.2,29.80,WNW,287,0.9,3.5,84,0.00,BKN,,0.05,0.0,WeatherDisplay:10.37,2013-01-19 01:27:00,
2013-01-18 19:32:00,30.3,26.0,29.80,West,274,1.2,3.5,84,0.00,BKN,,0.05,0.0,WeatherDisplay:10.37,2013-01-19 01:32:00,
2013-01-18 19:37:00,30.1,25.8,29.81,SSW,200,1.3,3.5,84,0.00,BKN,,0.05,0.0,WeatherDisplay:10.37,2013-01-19 01:37:00,
2013-01-18 19:42:00,29.9,25.9,29.80,WSW,257,0.7,2.3,85,0.00,BKN,,0.05,0.0,WeatherDisplay:10.37,2013-01-19 01:42:00,
2013-01-18 19:47:00,29.7,25.7,29.80,WSW,241,0.4,2.3,85,0.00,BKN,,0.05,0.0,WeatherDisplay:10.37,2013-01-19 01:47:00,
2013-01-18 19:52:00,29.6,25.6,29.80,WNW,286,1.3,3.5,85,0.00,BKN,,0.05,0.0,WeatherDisplay:10.37,2013-01-19 01:52:00,
2013-01-18 19:57:00,29.5,25.8,29.80,WNW,286,0.3,1.1,86,0.00,BKN,,0.05,0.0,WeatherDisplay:10.37,2013-01-19 01:57:00,
2013-01-18 20:02:00,29.6,25.9,29.80,WNW,285,1.4,3.5,86,0.00,BKN,,0.05,0.0,WeatherDisplay:10.37,2013-01-19 02:02:00,
2013-01-18 20:07:00,29.7,26.0,29.81,WSW,254,2.2,7.0,86,0.00,BKN,,0.05,0.0,WeatherDisplay:10.37,2013-01-19 02:07:00,
2013-01-18 20:13:00,29.7,26.0,29.80,West,280,0.4,3.5,86,0.00,BKN,,0.05,0.0,WeatherDisplay:10.37,2013-01-19 02:13:00,
2013-01-18 20:18:00,29.6,25.9,29.80,West,275,1.0,3.5,86,0.00,BKN,,0.05,0.0,WeatherDisplay:10.37,2013-01-19 02:18:00,
2013-01-18 20:23:00,29.7,26.0,29.80,SW,229,1.9,4.0,86,0.00,BKN,,0.05,0.0,WeatherDisplay:10.37,2013-01-19 02:23:00,
2013-01-18 20:28:00,29.7,26.0,29.80,WSW,246,2.0,5.0,86,0.00,BKN,,0.05,0.0,WeatherDisplay:10.37,2013-01-19 02:28:00,
2013-01-18 20:34:00,29.7,26.0,29.80,West,279,1.6,3.5,86,0.00,BKN,,0.05,0.0,WeatherDisplay:10.37,2013-01-19 02:34:00,
2013-01-18 20:39:00,29.6,26.2,29.79,West,269,2.9,3.5,87,0.00,BKN,,0.05,0.0,WeatherDisplay:10.37,2013-01-19 02:39:00,
2013-01-18 20:44:00,29.6,26.2,29.79,West,269,3.0,3.5,87,0.00,BKN,,0.05,0.0,WeatherDisplay:10.37,2013-01-19 02:44:00,
2013-01-18 20:49:00,29.6,26.2,29.79,NNE,12,0.0,3.5,87,0.00,BKN,,0.05,0.0,WeatherDisplay:10.37,2013-01-19 02:49:00,
2013-01-18 20:54:00,29.6,26.2,29.79,North,0,0.0,0.0,87,0.00,BKN,,0.05,0.0,WeatherDisplay:10.37,2013-01-19 02:54:00,
2013-01-18 20:59:00,29.6,26.2,29.79,North,0,0.0,0.0,87,0.00,BKN,,0.05,0.0,WeatherDisplay:10.37,2013-01-19 02:59:00,
2013-01-18 21:04:00,29.6,26.2,29.79,North,0,0.0,0.0,87,0.00,BKN,,0.05,0.0,WeatherDisplay:10.37,2013-01-19 03:04:00,
2013-01-18 21:09:00,29.6,26.2,29.79,North,0,0.0,0.0,87,0.00,BKN,,0.05,0.0,WeatherDisplay:10.37,2013-01-19 03:09:00,
2013-01-18 21:14:00,29.6,26.2,29.79,North,0,0.0,0.0,87,0.00,BKN,,0.05,0.0,WeatherDisplay:10.37,2013-01-19 03:14:00,
2013-01-18 21:19:00,29.6,26.2,29.79,North,0,0.0,0.0,87,0.00,BKN,,0.05,0.0,WeatherDisplay:10.37,2013-01-19 03:19:00,
2013-01-18 21:24:00,28.4,25.6,29.79,SSW,208,0.6,3.5,89,0.00,BKN,,0.05,0.0,WeatherDisplay:10.37,2013-01-19 03:24:00,
2013-01-18 21:29:00,28.6,25.8,29.79,SSW,209,1.1,2.3,89,0.00,BKN,,0.05,0.0,WeatherDisplay:10.37,2013-01-19 03:29:00,
2013-01-18 21:34:00,28.8,26.0,29.80,WSW,256,1.0,2.0,89,0.00,BKN,,0.05,0.0,WeatherDisplay:10.37,2013-01-19 03:34:00,
2013-01-18 21:39:00,29.0,26.2,29.81,WNW,289,1.8,4.0,89,0.00,BKN,,0.05,0.0,WeatherDisplay:10.37,2013-01-19 03:39:00,
2013-01-18 21:44:00,29.1,26.3,29.81,WNW,292,1.8,4.6,89,0.00,BKN,,0.05,0.0,WeatherDisplay:10.37,2013-01-19 03:44:00,
2013-01-18 21:49:00,29.3,26.7,29.81,WNW,289,3.3,4.0,90,0.00,BKN,,0.05,0.0,WeatherDisplay:10.37,2013-01-19 03:49:00,
2013-01-18 21:54:00,29.4,26.6,29.81,WNW,287,1.0,3.0,89,0.00,BKN,,0.05,0.0,WeatherDisplay:10.37,2013-01-19 03:54:00,
2013-01-18 21:59:00,29.6,26.8,29.81,WNW,290,1.9,4.0,89,0.00,BKN,,0.05,0.0,WeatherDisplay:10.37,2013-01-19 03:59:00,
2013-01-18 22:04:00,29.7,26.9,29.81,West,272,1.2,3.0,89,0.00,BKN,,0.05,0.0,WeatherDisplay:10.37,2013-01-19 04:04:00,
2013-01-18 22:09:00,29.7,26.9,29.81,West,274,0.5,2.3,89,0.00,BKN,,0.05,0.0,WeatherDisplay:10.37,2013-01-19 04:09:00,
2013-01-18 22:14:00,29.8,27.2,29.81,WNW,297,3.7,5.0,90,0.00,BKN,,0.05,0.0,WeatherDisplay:10.37,2013-01-19 04:14:00,
2013-01-18 22:19:00,29.9,27.1,29.81,NW,304,2.6,6.0,89,0.00,BKN,,0.05,0.0,WeatherDisplay:10.37,2013-01-19 04:19:00,
2013-01-18 22:24:00,29.8,27.0,29.81,WNW,300,2.2,3.5,89,0.00,BKN,,0.05,0.0,WeatherDisplay:10.37,2013-01-19 04:24:00,
2013-01-18 22:30:00,29.6,27.0,29.81,WNW,294,1.1,4.0,90,0.00,BKN,,0.05,0.0,WeatherDisplay:10.37,2013-01-19 04:30:00,
2013-01-18 22:35:00,29.4,26.8,29.81,WNW,294,0.1,1.1,90,0.00,BKN,,0.05,0.0,WeatherDisplay:10.37,2013-01-19 04:35:00,
2013-01-18 22:40:00,29.3,26.7,29.80,WNW,294,1.2,3.5,90,0.00,BKN,,0.05,0.0,WeatherDisplay:10.37,2013-01-19 04:40:00,
2013-01-18 22:45:00,29.3,26.7,29.80,WNW,294,0.3,1.0,90,0.00,BKN,,0.05,0.0,WeatherDisplay:10.37,2013-01-19 04:45:00,
2013-01-18 22:50:00,29.4,27.1,29.80,WNW,294,1.0,3.5,91,0.00,BKN,,0.05,0.0,WeatherDisplay:10.37,2013-01-19 04:50:00,
2013-01-18 22:55:00,29.4,27.1,29.80,WNW,293,1.1,3.0,91,0.00,BKN,,0.05,0.0,WeatherDisplay:10.37,2013-01-19 04:55:00,
2013-01-18 23:00:00,29.5,27.2,29.80,WNW,292,1.5,3.0,91,0.00,BKN,,0.05,0.0,WeatherDisplay:10.37,2013-01-19 05:00:00,
2013-01-18 23:01:00,29.5,27.2,29.80,WNW,292,1.5,4.0,91,0.00,BKN,,0.05,0.0,WeatherDisplay:10.37,2013-01-19 05:01:00,
2013-01-18 23:03:00,29.6,27.3,29.80,West,275,2.4,5.0,91,0.00,BKN,,0.05,0.0,WeatherDisplay:10.37,2013-01-19 05:03:00,
2013-01-18 23:09:00,29.9,27.6,29.80,West,275,0.0,0.0,91,0.00,BKN,,0.05,0.0,WeatherDisplay:10.37,2013-01-19 05:09:00,
2013-01-18 23:14:00,30.1,27.8,29.80,WNW,292,1.2,3.5,91,0.00,BKN,,0.05,0.0,WeatherDisplay:10.37,2013-01-19 05:14:00,
2013-01-18 23:17:00,30.1,27.8,29.79,WNW,292,0.1,1.1,91,0.00,BKN,,0.05,0.0,WeatherDisplay:10.37,2013-01-19 05:17:00,
2013-01-18 23:22:00,30.1,27.8,29.79,WNW,289,0.0,0.0,91,0.00,BKN,,0.05,0.0,WeatherDisplay:10.37,2013-01-19 05:22:00,
2013-01-18 23:27:00,29.9,27.6,29.79,WNW,288,0.1,1.1,91,0.00,BKN,,0.05,0.0,WeatherDisplay:10.37,2013-01-19 05:27:00,
2013-01-18 23:32:00,30.4,28.4,29.79,West,281,1.1,2.3,92,0.00,BKN,,0.05,0.0,WeatherDisplay:10.37,2013-01-19 05:32:00,
2013-01-18 23:37:00,30.6,28.3,29.80,WNW,300,1.3,3.5,91,0.00,BKN,,0.05,0.0,WeatherDisplay:10.37,2013-01-19 05:37:00,
2013-01-18 23:42:00,30.7,28.4,29.79,WNW,300,0.5,1.1,91,0.00,BKN,,0.05,0.0,WeatherDisplay:10.37,2013-01-19 05:42:00,
2013-01-18 23:47:00,31.0,28.4,29.79,West,271,1.2,3.5,90,0.00,BKN,,0.05,0.0,WeatherDisplay:10.37,2013-01-19 05:47:00,
2013-01-18 23:52:00,30.7,28.1,29.79,West,271,1.1,2.3,90,0.00,BKN,,0.05,0.0,WeatherDisplay:10.37,2013-01-19 05:52:00,
2013-01-18 23:57:00,30.3,27.7,29.79,West,271,0.0,0.0,90,0.00,BKN,,0.05,0.0,WeatherDisplay:10.37,2013-01-19 05:57:00,